TimeCDT,TemperatureF,Dew PointF,Humidity,Sea Level PressureIn,VisibilityMPH,Wind Direction,Wind SpeedMPH,Gust SpeedMPH,PrecipitationIn,Events,Conditions,WindDirDegrees,DateUTC
12:14 AM,28.4,23.0,80,30.09,2.5,NNW,15.0,-,N/A,,Haze,330,2013-03-25 05:14:00
12:39 AM,28.4,24.8,86,30.09,1.5,NW,13.8,-,0.00,Snow,Light Snow,320,2013-03-25 05:39:00
12:54 AM,28.0,24.1,85,30.12,2.0,NW,15.0,-,0.00,,Overcast,320,2013-03-25 05:54:00
1:27 AM,28.4,24.8,86,30.10,2.5,NNW,18.4,-,0.00,,Overcast,330,2013-03-25 06:27:00
1:54 AM,28.0,23.0,81,30.13,1.8,North,24.2,28.8,0.00,,Overcast,350,2013-03-25 06:54:00
2:54 AM,27.0,21.9,81,30.14,1.5,NNW,19.6,-,0.00,,Overcast,330,2013-03-25 07:54:00
3:01 AM,26.6,21.2,80,30.11,2.5,NNW,19.6,-,0.00,,Overcast,330,2013-03-25 08:01:00
3:08 AM,26.6,21.2,80,30.12,4.0,NNW,18.4,-,0.00,,Overcast,330,2013-03-25 08:08:00
3:54 AM,27.0,19.9,75,30.14,10.0,NNW,19.6,-,0.00,,Overcast,330,2013-03-25 08:54:00
4:54 AM,27.0,19.0,72,30.15,10.0,NW,18.4,25.3,N/A,,Overcast,320,2013-03-25 09:54:00
5:54 AM,26.1,19.0,75,30.17,10.0,NW,20.7,26.5,N/A,,Overcast,320,2013-03-25 10:54:00
6:54 AM,25.0,19.9,81,30.18,3.0,NW,19.6,-,0.00,,Overcast,320,2013-03-25 11:54:00
7:12 AM,24.8,19.4,80,30.15,2.5,NW,23.0,28.8,0.00,,Overcast,320,2013-03-25 12:12:00
7:44 AM,24.8,19.4,80,30.16,1.2,NW,21.9,-,0.00,,Overcast,320,2013-03-25 12:44:00
7:54 AM,25.0,21.0,85,30.20,1.2,NW,20.7,-,0.00,,Overcast,320,2013-03-25 12:54:00
8:54 AM,26.1,21.0,81,30.22,1.5,NNW,21.9,-,0.00,,Overcast,330,2013-03-25 13:54:00
9:14 AM,26.6,21.2,80,30.20,1.0,NNW,19.6,-,0.00,,Overcast,330,2013-03-25 14:14:00
9:28 AM,26.6,21.2,80,30.20,1.0,NNW,23.0,28.8,0.00,Snow,Light Snow,330,2013-03-25 14:28:00
9:54 AM,27.0,21.0,78,30.23,1.8,NNW,23.0,-,0.00,,Overcast,330,2013-03-25 14:54:00
10:36 AM,28.4,21.2,74,30.22,2.0,NNW,23.0,-,0.00,,Overcast,330,2013-03-25 15:36:00
10:43 AM,28.4,21.2,74,30.22,1.2,NNW,17.3,-,0.00,Snow,Light Snow,330,2013-03-25 15:43:00
10:54 AM,28.0,23.0,81,30.25,1.0,NNW,21.9,-,0.00,Snow,Light Snow,330,2013-03-25 15:54:00
11:17 AM,28.4,23.0,80,30.24,1.5,NNW,19.6,-,0.00,Snow,Light Snow,330,2013-03-25 16:17:00
11:54 AM,28.9,21.9,75,30.27,2.5,NNW,20.7,-,0.00,Snow,Light Snow,330,2013-03-25 16:54:00
12:05 PM,30.2,23.0,75,30.24,3.0,NNW,19.6,-,0.00,Snow,Light Snow,330,2013-03-25 17:05:00
12:30 PM,30.2,21.2,69,30.24,2.5,NNW,23.0,28.8,0.00,Snow,Light Snow,330,2013-03-25 17:30:00
12:39 PM,30.2,23.0,75,30.24,5.0,NNW,23.0,28.8,0.00,Snow,Light Snow,330,2013-03-25 17:39:00
1:54 PM,32.0,21.9,66,30.27,10.0,NNW,19.6,24.2,N/A,,Overcast,330,2013-03-25 18:54:00
2:31 PM,30.2,19.4,64,30.24,10.0,NW,18.4,-,N/A,,Overcast,320,2013-03-25 19:31:00
2:54 PM,30.9,21.0,67,30.28,9.0,NW,20.7,-,N/A,,Overcast,320,2013-03-25 19:54:00
3:54 PM,30.9,21.0,67,30.28,9.0,NW,18.4,-,0.00,,Overcast,320,2013-03-25 20:54:00
4:54 PM,30.9,19.9,64,30.29,10.0,NNW,20.7,-,0.00,,Overcast,330,2013-03-25 21:54:00
5:54 PM,30.9,21.0,67,30.30,10.0,NW,18.4,-,N/A,,Overcast,310,2013-03-25 22:54:00
6:54 PM,30.9,19.9,64,30.31,10.0,NW,18.4,-,N/A,,Overcast,320,2013-03-25 23:54:00
7:54 PM,28.9,19.9,69,30.33,10.0,NW,13.8,-,N/A,,Overcast,320,2013-03-26 00:54:00
8:54 PM,27.0,19.0,72,30.34,10.0,NW,12.7,-,N/A,,Partly Cloudy,320,2013-03-26 01:54:00
9:54 PM,26.1,19.0,75,30.36,10.0,NW,9.2,-,N/A,,Overcast,320,2013-03-26 02:54:00
10:54 PM,25.0,18.0,75,30.37,10.0,NW,8.1,-,N/A,,Overcast,320,2013-03-26 03:54:00
11:54 PM,23.0,17.1,78,30.37,10.0,NW,10.4,-,N/A,,Clear,320,2013-03-26 04:54:00